Weather History for Worland, WY

Change the Weather History Date:

Sunday, December 9, 2012

  Actual Average Record
Temperature  
Mean Temperature 12 °F 18 °F  
Max Temperature 20 °F 31 °F 53 °F (1962)
Min Temperature 3 °F 6 °F -32 °F (1972)
Degree Days  
Heating Degree Days 53 46  
Month to date heating degree days 291 404  
Since 1 July heating degree days 1683 2296  
Cooling Degree Days 0 0  
Month to date cooling degree days 0 0  
Year to date cooling degree days 901 535  
Moisture  
Dew Point 5 °F    
Average Humidity 72    
Maximum Humidity 88    
Minimum Humidity 56    
Precipitation  
Precipitation 0.00 in 0.00 in 0.15 in (1970)
Month to date precipitation 0.03 0.07  
Year to date precipitation 2.68 7.41  
Sea Level Pressure  
Sea Level Pressure 30.33 in    
Wind  
Wind Speed 5 mph (ESE)    
Max Wind Speed 14 mph    
Max Gust Speed 17 mph    
Visibility 10 miles    
Events      
T = Trace of Precipitation, MM = Missing Value Source: NWS Daily Summary

Daily Weather History Graph

Daily Weather History Graph

Search for Another Location

Airport:

Trip Planner

Search our weather history database for the weather conditions in past years. The results will help you decide how hot, cold, wet, or windy it might be!

Date:

Astronomy

Dec. 09, 2012 Rise Set
Actual Time 7:35 AM MST 4:33 PM MST
Civil Twilight 7:02 AM MST 5:06 PM MST
Nautical Twilight 6:25 AM MST 5:42 PM MST
Astronomical Twilight 5:50 AM MST 6:17 PM MST
Moon 3:05 AM MST (12/9) 1:47 PM MST (12/9)
Length of Visible Light 10h 04m
Length of Day
8h 58m
Waning Crescent, 18% of the Moon is Illuminated
Dec 9
Waning Crescent
Dec 13
New
Dec 19
First Quarter
Dec 28
Full
Jan 4
Last Quarter

Hourly Weather History & Observations

Time (MST) Temp. Windchill Dew Point Humidity Pressure Visibility Wind Dir Wind Speed Gust Speed Precip Events Conditions
12:53 AM 12.0 °F 1.5 °F 5.0 °F 73% 30.30 in 10.0 mi North 6.9 mph - N/A   Clear
1:53 AM 8.1 °F - 3.0 °F 80% 30.33 in 10.0 mi Calm Calm - N/A   Clear
2:53 AM 8.1 °F -0.5 °F 3.0 °F 80% 30.36 in 10.0 mi East 4.6 mph - N/A   Partly Cloudy
3:12 AM 8.6 °F 0.1 °F 3.2 °F 79% 30.18 in 10.0 mi East 4.6 mph - N/A   Mostly Cloudy
3:36 AM 6.8 °F -4.8 °F 3.2 °F 85% 30.18 in 10.0 mi East 6.9 mph - N/A   Partly Cloudy
3:49 AM 8.6 °F 0.1 °F 3.2 °F 79% 30.19 in 10.0 mi ENE 4.6 mph - N/A   Mostly Cloudy
3:53 AM 9.0 °F 0.6 °F 3.9 °F 80% 30.38 in 10.0 mi East 4.6 mph - N/A   Scattered Clouds
4:53 AM 8.1 °F - 3.9 °F 83% 30.40 in 10.0 mi Calm Calm - N/A   Mostly Cloudy
5:31 AM 6.8 °F - 3.2 °F 85% 30.22 in 10.0 mi Calm Calm - N/A   Scattered Clouds
5:53 AM 8.1 °F - 3.0 °F 80% 30.43 in 10.0 mi Calm Calm - N/A   Partly Cloudy
6:53 AM 7.0 °F - 3.0 °F 84% 30.46 in 10.0 mi Calm Calm - N/A   Clear
7:53 AM 3.0 °F - -0.9 °F 84% 30.50 in 10.0 mi Calm Calm - N/A   Clear
8:53 AM 7.0 °F - 3.0 °F 84% 30.51 in 10.0 mi Calm Calm - N/A   Clear
9:53 AM 12.9 °F 6.9 °F 6.1 °F 74% 30.51 in 10.0 mi Variable 3.5 mph - N/A   Clear
10:53 AM 15.1 °F 7.7 °F 6.1 °F 68% 30.49 in 10.0 mi SSE 4.6 mph - N/A   Clear
11:53 AM 17.1 °F 11.7 °F 6.1 °F 62% 30.46 in 10.0 mi SSW 3.5 mph - N/A   Clear
12:53 PM 18.0 °F - 7.0 °F 62% 30.43 in 10.0 mi Calm Calm - N/A   Clear
1:53 PM 19.0 °F 13.9 °F 7.0 °F 59% 30.41 in 10.0 mi SSE 3.5 mph - N/A   Clear
2:53 PM 19.9 °F 11.1 °F 7.0 °F 57% 30.38 in 10.0 mi ESE 6.9 mph - N/A   Clear
3:53 PM 19.0 °F 9.0 °F 7.0 °F 59% 30.35 in 10.0 mi SE 8.1 mph - N/A   Clear
4:53 PM 12.9 °F 0.7 °F 6.1 °F 74% 30.34 in 10.0 mi ESE 9.2 mph - N/A   Clear
5:53 PM 12.9 °F -1.6 °F 6.1 °F 74% 30.30 in 10.0 mi ESE 12.7 mph - N/A   Clear
6:53 PM 12.9 °F -1.6 °F 6.1 °F 74% 30.26 in 10.0 mi ESE 12.7 mph - N/A   Clear
7:53 PM 14.0 °F -0.2 °F 7.0 °F 74% 30.24 in 10.0 mi ESE 12.7 mph - N/A   Overcast
8:53 PM 15.1 °F 2.5 °F 7.0 °F 70% 30.20 in 10.0 mi ESE 10.4 mph - N/A   Overcast
9:53 PM 16.0 °F 10.4 °F 7.0 °F 68% 30.17 in 10.0 mi South 3.5 mph - N/A   Overcast
10:53 PM 16.0 °F - 10.0 °F 77% 30.15 in 10.0 mi Calm Calm - N/A   Overcast
11:53 PM 14.0 °F 5.1 °F 9.0 °F 80% 30.15 in 10.0 mi SW 5.8 mph - N/A   Overcast